KE5OYL Weather Reports


Display with metric or nautical units.
time (UTC)temp
F
wind
direction
speed
MPH
gust
MPH
rain 1hr
in
rain 24hr
in
rain mn
in
humidity
%
barometer
mb
20260901234159 97 40 6.0 9.0 0.00 0.00 0.00 43 1013.9
20260901233658 97 100 5.0 7.0 0.00 0.00 0.00 42 1013.8
20260901233155 97 93 6.0 9.0 0.00 0.00 0.00 42 1013.6
20260901232649 97 97 4.0 9.0 0.00 0.00 0.00 42 1013.7
20260901232145 98 41 4.0 7.0 0.00 0.00 0.00 41 1013.9
20260901231642 98 67 5.0 9.0 0.00 0.00 0.00 41 1013.7
20260901231137 98 56 5.0 9.0 0.00 0.00 0.00 42 1013.7
20260901230633 98 70 5.0 7.0 0.00 0.00 0.00 41 1013.6
20260901230132 99 109 8.0 10.0 0.00 0.00 0.00 41 1013.7
20260901225628 98 46 10.0 13.0 0.00 0.00 0.00 41 1014.0
20260901225128 99 35 1.0 3.0 0.00 0.00 0.00 41 1013.8
20260901224624 100 57 6.0 8.0 0.00 0.00 0.00 40 1014.1
20260901224120 99 74 4.0 7.0 0.00 0.00 0.00 40 1013.9
20260901223615 98 38 5.0 7.0 0.00 0.00 0.00 41 1013.8
20260901223110 98 118 8.0 11.0 0.00 0.00 0.00 41 1013.6
20260901222607 99 106 8.0 9.0 0.00 0.00 0.00 41 1013.7
20260901222102 98 78 5.0 10.0 0.00 0.00 0.00 41 1014.0
20260901221558 98 29 4.0 6.0 0.00 0.00 0.00 41 1013.7
20260901221053 98 49 3.0 3.0 0.00 0.00 0.00 41 1013.9
20260901220552 98 105 3.0 5.0 0.00 0.00 0.00 41 1013.8
20260901220052 97 76 4.0 7.0 0.00 0.00 0.00 42 1014.1
20260901215550 97 74 5.0 9.0 0.00 0.00 0.00 43 1014.0
20260901215044 97 83 1.0 6.0 0.00 0.00 0.00 42 1014.1
20260901214543 98 49 5.0 9.0 0.00 0.00 0.00 42 1014.4
20260901214038 97 28 2.0 7.0 0.00 0.00 0.00 42 1014.1
20260901213537 98 40 4.0 7.0 0.00 0.00 0.00 41 1014.1
20260901213032 97 103 6.0 10.0 0.00 0.00 0.00 42 1014.2
20260901212531 98 36 3.0 6.0 0.00 0.00 0.00 42 1014.1
20260901212029 98 330 3.0 10.0 0.00 0.00 0.00 41 1014.4
20260901211523 98 16 2.0 9.0 0.00 0.00 0.00 41 1014.2
20260901211020 98 55 4.0 11.0 0.00 0.00 0.00 41 1014.3
20260901210515 98 19 2.0 5.0 0.00 0.00 0.00 41 1014.4
20260901210011 100 59 3.0 5.0 0.00 0.00 0.00 39 1014.5
20260901205506 99 21 1.0 7.0 0.00 0.00 0.00 39 1014.4
20260901205000 99 132 7.0 10.0 0.00 0.00 0.00 40 1014.5
20260901204457 98 15 1.0 7.0 0.00 0.00 0.00 41 1014.4
20260901203956 99 21 2.0 9.0 0.00 0.00 0.00 41 1014.4
20260901203451 101 31 2.0 8.0 0.00 0.00 0.00 40 1014.5
20260901202946 99 195 5.0 6.0 0.00 0.00 0.00 39 1014.4
20260901202441 98 139 3.0 5.0 0.00 0.00 0.00 39 1014.4
20260901201937 98 135 7.0 9.0 0.00 0.00 0.00 40 1014.8
20260901201432 98 89 6.0 8.0 0.00 0.00 0.00 41 1014.9
20260901200926 97 124 3.0 7.0 0.00 0.00 0.00 42 1014.8
20260901200421 96 29 2.0 8.0 0.00 0.00 0.00 43 1015.0
20260901195920 96 26 1.0 6.0 0.00 0.00 0.00 43 1015.0
20260901195419 97 70 5.0 11.0 0.00 0.00 0.00 43 1015.2
20260901194914 97 19 0.0 2.0 0.00 0.00 0.00 41 1014.9
20260901194408 97 83 5.0 7.0 0.00 0.00 0.00 42 1015.2
20260901193905 98 214 3.0 5.0 0.00 0.00 0.00 41 1015.3
20260901193403 98 95 5.0 8.0 0.00 0.00 0.00 41 1015.3
20260901192858 98 128 4.0 8.0 0.00 0.00 0.00 42 1015.5
20260901192354 98 340 3.0 9.0 0.00 0.00 0.00 42 1015.4
20260901191850 99 96 5.0 7.0 0.00 0.00 0.00 40 1015.3
20260901191345 98 358 1.0 6.0 0.00 0.00 0.00 41 1015.6
20260901190841 95 52 2.0 7.0 0.00 0.00 0.00 43 1015.7
20260901190341 95 97 7.0 10.0 0.00 0.00 0.00 45 1015.6
20260901185839 96 65 5.0 9.0 0.00 0.00 0.00 43 1015.8
20260901185338 97 99 4.0 8.0 0.00 0.00 0.00 43 1016.0
20260901184833 97 165 6.0 9.0 0.00 0.00 0.00 42 1015.7
20260901184329 97 158 6.0 9.0 0.00 0.00 0.00 40 1016.1
20260901183825 97 151 7.0 10.0 0.00 0.00 0.00 41 1016.4
20260901183324 97 155 7.0 10.0 0.00 0.00 0.00 43 1016.4
20260901182820 96 187 6.0 9.0 0.00 0.00 0.00 44 1016.6
20260901182320 96 147 9.0 11.0 0.00 0.00 0.00 44 1016.4
20260901181815 96 28 4.0 6.0 0.00 0.00 0.00 44 1016.6
20260901181309 95 1 1.0 1.0 0.00 0.00 0.00 45 1016.6
20260901180803 94 177 4.0 5.0 0.00 0.00 0.00 46 1016.6
20260901180302 94 165 5.0 6.0 0.00 0.00 0.00 48 1016.9
20260901175801 94 165 5.0 8.0 0.00 0.00 0.00 48 1016.9
20260901175256 94 104 3.0 6.0 0.00 0.00 0.00 49 1017.0
20260901174751 94 146 6.0 9.0 0.00 0.00 0.00 49 1017.0
20260901174247 94 218 3.0 5.0 0.00 0.00 0.00 48 1017.2
20260901173743 96 183 5.0 7.0 0.00 0.00 0.00 47 1017.2
20260901173237 94 67 4.0 10.0 0.00 0.00 0.00 48 1017.2
20260901172734 95 135 4.0 6.0 0.00 0.00 0.00 47 1017.3
20260901172232 94 9 0.0 5.0 0.00 0.00 0.00 49 1017.4
20260901171731 93 74 5.0 7.0 0.00 0.00 0.00 49 1017.5
20260901171230 93 28 3.0 6.0 0.00 0.00 0.00 50 1017.6
20260901170729 94 49 5.0 7.0 0.00 0.00 0.00 48 1017.4
20260901170224 94 14 3.0 3.0 0.00 0.00 0.00 49 1017.7
20260901165723 96 15 2.0 3.0 0.00 0.00 0.00 46 1017.7
20260901165218 95 199 3.0 8.0 0.00 0.00 0.00 48 1017.6
20260901164714 94 41 2.0 7.0 0.00 0.00 0.00 49 1017.9
20260901164209 93 159 3.0 7.0 0.00 0.00 0.00 50 1017.7
20260901163704 95 51 3.0 3.0 0.00 0.00 0.00 47 1018.1
20260901163203 95 67 3.0 5.0 0.00 0.00 0.00 49 1018.1
20260901162659 95 272 3.0 3.0 0.00 0.00 0.00 49 1017.8
20260901162158 93 45 3.0 3.0 0.00 0.00 0.00 51 1017.9
20260901161656 94 223 7.0 8.0 0.00 0.00 0.00 49 1017.9
20260901161151 92 23 0.0 2.0 0.00 0.00 0.00 53 1017.9
20260901160648 92 49 2.0 5.0 0.00 0.00 0.00 52 1018.1
20260901160143 91 228 5.0 7.0 0.00 0.00 0.00 53 1018.1
20260901155642 94 280 3.0 3.0 0.00 0.00 0.00 50 1017.9
20260901155137 92 37 3.0 3.0 0.00 0.00 0.00 53 1017.8
20260901154632 91 188 6.0 9.0 0.00 0.00 0.00 54 1018.2
20260901154127 91 90 3.0 6.0 0.00 0.00 0.00 54 1018.1
20260901153621 90 215 4.0 6.0 0.00 0.00 0.00 55 1018.1
20260901153115 91 254 4.0 5.0 0.00 0.00 0.00 55 1018.2
20260901152611 91 146 2.0 2.0 0.00 0.00 0.00 53 1017.7
20260901152109 90 331 2.0 6.0 0.00 0.00 0.00 57 1018.1
20260901151605 90 100 2.0 3.0 0.00 0.00 0.00 56 1017.8
20260901151104 89 214 4.0 7.0 0.00 0.00 0.00 57 1017.9
20260901150602 89 228 3.0 3.0 0.00 0.00 0.00 58 1017.9
20260901150056 90 231 3.0 8.0 0.00 0.00 0.00 59 1018.1
20260901145554 89 10 1.0 2.0 0.00 0.00 0.00 60 1018.2
20260901145048 89 201 4.0 5.0 0.00 0.00 0.00 60 1017.9
20260901144544 89 175 4.0 6.0 0.00 0.00 0.00 60 1018.4
20260901144039 88 330 1.0 2.0 0.00 0.00 0.00 61 1018.3
20260901143534 88 75 2.0 3.0 0.00 0.00 0.00 60 1018.4
20260901143026 88 6 1.0 2.0 0.00 0.00 0.00 61 1018.1
20260901142525 90 88 2.0 3.0 0.00 0.00 0.00 60 1018.1
20260901142015 88 27 0.0 1.0 0.00 0.00 0.00 61 1018.3
20260901141515 86 50 1.0 5.0 0.00 0.00 0.00 64 1018.1
20260901141010 86 117 2.0 2.0 0.00 0.00 0.00 64 1018.1
20260901140508 86 200 3.0 5.0 0.00 0.00 0.00 64 1018.2
20260901140003 86 316 3.0 5.0 0.00 0.00 0.00 64 1018.2
20260901135501 86 349 1.0 3.0 0.00 0.00 0.00 64 1018.5
20260901134957 85 55 2.0 6.0 0.00 0.00 0.00 65 1018.2
20260901134453 85 48 2.0 3.0 0.00 0.00 0.00 65 1018.3
20260901133948 84 1 1.0 3.0 0.00 0.00 0.00 66 1017.9
20260901133447 85 7 1.0 3.0 0.00 0.00 0.00 65 1018.2
20260901132946 86 103 1.0 2.0 0.00 0.00 0.00 64 1018.3
20260901132445 86 15 1.0 1.0 0.00 0.00 0.00 63 1018.4
20260901131945 85 17 0.0 1.0 0.00 0.00 0.00 64 1017.9
20260901131439 84 36 1.0 2.0 0.00 0.00 0.00 65 1018.2
20260901130935 84 55 1.0 2.0 0.00 0.00 0.00 65 1018.2
20260901130429 83 30 1.0 2.0 0.00 0.00 0.00 67 1018.1
20260901125927 83 33 1.0 3.0 0.00 0.00 0.00 67 1018.2
20260901125426 82 12 0.0 2.0 0.00 0.00 0.00 68 1017.9
20260901124921 82 42 2.0 2.0 0.00 0.00 0.00 67 1017.8
20260901124417 82 30 1.0 2.0 0.00 0.00 0.00 68 1017.7
20260901123911 82 127 3.0 5.0 0.00 0.00 0.00 68 1017.6
20260901123406 82 66 2.0 3.0 0.00 0.00 0.00 68 1017.7
20260901122904 81 33 1.0 2.0 0.00 0.00 0.00 68 1017.5
20260901122359 81 196 5.0 6.0 0.00 0.00 0.00 68 1017.5
20260901121858 81 168 4.0 5.0 0.00 0.00 0.00 68 1017.3
20260901121354 82 306 2.0 2.0 0.00 0.00 0.00 68 1017.4
20260901120849 82 36 1.0 3.0 0.00 0.00 0.00 67 1017.1
20260901120343 82 112 2.0 3.0 0.00 0.00 0.00 67 1017.2
20260901115839 82 196 2.0 3.0 0.00 0.00 0.00 68 1017.1
20260901115334 81 334 1.0 2.0 0.00 0.00 0.00 68 1017.2
20260901114832 81 346 0.0 2.0 0.00 0.00 0.00 68 1017.0
20260901114331 81 344 1.0 1.0 0.00 0.00 0.00 68 1016.8
20260901113829 81 74 2.0 2.0 0.00 0.00 0.00 68 1017.1
20260901113329 81 23 0.0 1.0 0.00 0.00 0.00 68 1016.9
20260901112824 81 26 1.0 1.0 0.00 0.00 0.00 68 1017.1
20260901112324 81 37 1.0 3.0 0.00 0.00 0.00 67 1016.9
20260901111819 81 39 1.0 2.0 0.00 0.00 0.00 67 1017.0
20260901111318 81 30 0.0 2.0 0.00 0.00 0.00 67 1017.0
20260901110817 82 55 2.0 3.0 0.00 0.00 0.00 66 1016.8
20260901110312 82 48 2.0 2.0 0.00 0.00 0.00 66 1016.8
20260901105808 82 70 2.0 3.0 0.00 0.00 0.00 66 1016.9
20260901105305 82 39 1.0 2.0 0.00 0.00 0.00 66 1016.8
20260901104759 82 17 1.0 2.0 0.00 0.00 0.00 66 1016.5
20260901104254 82 4 1.0 1.0 0.00 0.00 0.00 66 1016.9
20260901103749 82 359 1.0 1.0 0.00 0.00 0.00 66 1016.8
20260901103244 82 27 1.0 2.0 0.00 0.00 0.00 65 1016.8
20260901102739 82 30 2.0 3.0 0.00 0.00 0.00 64 1016.7
20260901102239 82 27 1.0 1.0 0.00 0.00 0.00 65 1016.8
20260901101735 82 38 1.0 2.0 0.00 0.00 0.00 65 1016.7
20260901101234 82 31 1.0 2.0 0.00 0.00 0.00 65 1016.9
20260901100733 82 34 2.0 3.0 0.00 0.00 0.00 65 1016.9
20260901100229 82 123 4.0 5.0 0.00 0.00 0.00 65 1017.0
20260901095727 82 36 2.0 5.0 0.00 0.00 0.00 64 1017.1
20260901095224 82 90 2.0 3.0 0.00 0.00 0.00 64 1016.8
20260901094719 82 67 3.0 3.0 0.00 0.00 0.00 64 1016.9
20260901094214 82 41 3.0 5.0 0.00 0.00 0.00 64 1016.8
20260901093709 82 88 3.0 6.0 0.00 0.00 0.00 63 1016.7
20260901093208 83 81 3.0 5.0 0.00 0.00 0.00 62 1016.8
20260901092704 83 19 0.0 1.0 0.00 0.00 0.00 62 1016.9
20260901092200 83 29 1.0 2.0 0.00 0.00 0.00 62 1016.9
20260901091655 83 10 1.0 2.0 0.00 0.00 0.00 62 1016.8
20260901091150 83 76 2.0 3.0 0.00 0.00 0.00 62 1016.9
20260901090645 83 55 3.0 3.0 0.00 0.00 0.00 61 1017.0
20260901090140 83 43 1.0 3.0 0.00 0.00 0.00 61 1016.8
20260901085636 83 60 3.0 3.0 0.00 0.00 0.00 61 1016.7
20260901085131 84 42 1.0 2.0 0.00 0.00 0.00 59 1016.7
20260901084627 84 53 2.0 3.0 0.00 0.00 0.00 60 1016.5
20260901084124 84 25 0.0 2.0 0.00 0.00 0.00 59 1016.7
20260901083618 84 29 1.0 2.0 0.00 0.00 0.00 59 1016.5
20260901083116 84 20 0.0 2.0 0.00 0.00 0.00 59 1016.4
20260901082611 85 19 0.0 2.0 0.00 0.00 0.00 58 1016.5
20260901082107 84 15 0.0 2.0 0.00 0.00 0.00 58 1016.7
20260901081601 84 24 0.0 3.0 0.00 0.00 0.00 58 1016.4
20260901081055 85 29 1.0 2.0 0.00 0.00 0.00 58 1016.4
20260901080550 85 86 1.0 3.0 0.00 0.00 0.00 57 1016.5
20260901080049 85 10 1.0 3.0 0.00 0.00 0.00 57 1016.7
20260901075545 85 123 2.0 5.0 0.00 0.00 0.00 57 1016.6
20260901075044 85 105 3.0 3.0 0.00 0.00 0.00 57 1016.6
20260901074544 85 31 1.0 3.0 0.00 0.00 0.00 57 1016.6
20260901074039 85 154 3.0 3.0 0.00 0.00 0.00 57 1016.7
20260901073536 85 54 2.0 5.0 0.00 0.00 0.00 57 1016.5
20260901073030 85 35 1.0 3.0 0.00 0.00 0.00 56 1016.6
20260901072525 85 125 2.0 5.0 0.00 0.00 0.00 56 1016.5
20260901072020 85 41 3.0 5.0 0.00 0.00 0.00 56 1016.5
20260901071520 85 150 3.0 6.0 0.00 0.00 0.00 56 1016.3
20260901071018 85 114 3.0 5.0 0.00 0.00 0.00 56 1016.3
20260901070514 85 14 1.0 3.0 0.00 0.00 0.00 56 1016.4
20260901070009 86 39 2.0 3.0 0.00 0.00 0.00 56 1016.2
20260901065504 86 30 1.0 3.0 0.00 0.00 0.00 55 1016.3
20260901064958 86 47 2.0 3.0 0.00 0.00 0.00 55 1016.6
20260901064454 86 171 5.0 6.0 0.00 0.00 0.00 55 1016.3
20260901063951 86 44 2.0 6.0 0.00 0.00 0.00 54 1016.4
20260901063448 86 157 3.0 5.0 0.00 0.00 0.00 54 1016.2
20260901062943 86 102 3.0 6.0 0.00 0.00 0.00 54 1016.3
20260901062439 86 189 3.0 3.0 0.00 0.00 0.00 54 1015.9
20260901061935 86 131 5.0 7.0 0.00 0.00 0.00 54 1016.0
20260901061431 86 29 0.0 5.0 0.00 0.00 0.00 54 1015.9
20260901060925 86 115 4.0 5.0 0.00 0.00 0.00 53 1016.1
20260901060421 86 200 5.0 7.0 0.00 0.00 0.00 53 1016.0
20260901055920 87 27 1.0 6.0 0.00 0.00 0.00 52 1015.9
20260901055417 87 35 2.0 6.0 0.00 0.00 0.00 52 1016.0
20260901054913 87 351 1.0 5.0 0.00 0.00 0.00 52 1015.6
20260901054410 87 45 2.0 7.0 0.00 0.00 0.00 51 1015.7
20260901053906 88 38 2.0 8.0 0.00 0.00 0.00 50 1015.6
20260901053401 88 78 3.0 5.0 0.00 0.00 0.00 49 1015.6
20260901052856 88 180 4.0 5.0 0.00 0.00 0.00 49 1015.7
20260901052352 88 26 1.0 2.0 0.00 0.00 0.00 48 1015.7
20260901051850 88 45 1.0 6.0 0.00 0.00 0.00 48 1015.7
20260901051346 89 45 1.0 5.0 0.00 0.00 0.00 48 1015.5
20260901050841 89 107 2.0 5.0 0.00 0.00 0.00 47 1015.5
20260901050336 89 29 1.0 2.0 0.00 0.00 0.00 46 1015.3
20260901045831 89 48 2.0 3.0 0.00 0.00 0.00 46 1015.6
20260901045330 89 97 2.0 3.0 0.00 0.00 0.00 46 1015.3
20260901044826 89 71 4.0 5.0 0.00 0.00 0.00 46 1015.4
20260901044322 89 94 3.0 6.0 0.00 0.00 0.00 45 1015.5
20260901043818 90 58 4.0 5.0 0.00 0.00 0.00 45 1015.2
20260901043314 89 24 0.0 3.0 0.00 0.00 0.00 45 1015.2
20260901042813 90 26 0.0 2.0 0.00 0.00 0.00 45 1015.2
20260901042308 90 32 2.0 2.0 0.00 0.00 0.00 45 1015.1
20260901041803 90 21 0.0 2.0 0.00 0.00 0.00 45 1015.3
20260901041258 90 32 1.0 5.0 0.00 0.00 0.00 44 1015.2
20260901040755 91 76 2.0 3.0 0.00 0.00 0.00 44 1015.4
20260901040251 91 42 1.0 2.0 0.00 0.00 0.00 44 1015.1
20260901035745 91 47 2.0 3.0 0.00 0.00 0.00 43 1015.3
20260901035244 91 69 3.0 3.0 0.00 0.00 0.00 43 1015.3
20260901034743 92 34 1.0 1.0 0.00 0.00 0.00 43 1015.0
20260901034239 92 16 1.0 2.0 0.00 0.00 0.00 42 1015.0
20260901033738 92 156 2.0 3.0 0.00 0.00 0.00 42 1015.1
20260901033237 92 43 1.0 2.0 0.00 0.00 0.00 42 1014.9
20260901032736 92 19 0.0 1.0 0.00 0.00 0.00 42 1015.2
20260901032230 92 30 1.0 1.0 0.00 0.00 0.00 41 1015.1
20260901031726 93 70 3.0 3.0 0.00 0.00 0.00 41 1015.1
20260901031221 93 312 2.0 2.0 0.00 0.00 0.00 41 1015.2
20260901030716 93 31 0.0 3.0 0.00 0.00 0.00 41 1015.2
20260901030211 93 96 2.0 5.0 0.00 0.00 0.00 41 1015.0
20260901025705 93 54 2.0 7.0 0.00 0.00 0.00 41 1015.1
20260901025200 93 89 3.0 6.0 0.00 0.00 0.00 40 1015.1
20260901024700 93 141 2.0 3.0 0.00 0.00 0.00 40 1014.9
20260901024159 93 160 3.0 3.0 0.00 0.00 0.00 40 1014.8
20260901023657 93 112 3.0 3.0 0.00 0.00 0.00 40 1014.8
20260901023152 93 28 2.0 6.0 0.00 0.00 0.00 40 1014.5
20260901022648 93 122 2.0 6.0 0.00 0.00 0.00 40 1014.5
20260901022143 93 132 3.0 5.0 0.00 0.00 0.00 40 1014.6
20260901021638 94 131 4.0 9.0 0.00 0.00 0.00 39 1014.4
20260901021133 94 64 3.0 7.0 0.00 0.00 0.00 39 1014.5
20260901020630 94 71 3.0 5.0 0.00 0.00 0.00 39 1014.2
20260901020124 94 31 3.0 6.0 0.00 0.00 0.00 39 1014.5
20260901015620 94 65 2.0 6.0 0.00 0.00 0.00 38 1014.4
20260901015120 94 42 3.0 3.0 0.00 0.00 0.00 38 1014.2
20260901014614 95 88 1.0 2.0 0.00 0.00 0.00 38 1014.3
20260901014111 95 67 2.0 3.0 0.00 0.00 0.00 37 1014.3
20260901013606 95 92 3.0 5.0 0.00 0.00 0.00 37 1014.4
20260901013101 96 172 3.0 7.0 0.00 0.00 0.00 36 1014.5
20260901012556 96 63 3.0 3.0 0.00 0.00 0.00 36 1014.2
20260901012051 96 87 1.0 2.0 0.00 0.00 0.00 35 1014.1
20260901011548 96 43 2.0 7.0 0.00 0.00 0.00 35 1014.3
20260901011045 96 140 3.0 6.0 0.00 0.00 0.00 35 1014.3
20260901010541 97 123 3.0 6.0 0.00 0.00 0.00 34 1014.1
20260901010040 97 102 5.0 6.0 0.00 0.00 0.00 34 1014.0
20260901005535 97 32 1.0 5.0 0.00 0.00 0.00 33 1013.9
20260901005030 97 124 5.0 6.0 0.00 0.00 0.00 33 1014.0
20260901004529 97 116 2.0 3.0 0.00 0.00 0.00 32 1013.9
20260901004024 97 103 3.0 5.0 0.00 0.00 0.00 32 1014.0
20260901003520 98 125 3.0 8.0 0.00 0.00 0.00 32 1013.9
20260901003018 98 58 2.0 7.0 0.00 0.00 0.00 31 1013.9
20260901002517 98 120 5.0 7.0 0.00 0.00 0.00 32 1013.9
20260901002013 98 181 2.0 7.0 0.00 0.00 0.00 31 1014.1
20260901001507 99 121 3.0 6.0 0.00 0.00 0.00 31 1013.9
20260901001002 98 122 4.0 7.0 0.00 0.00 0.00 31 1013.9
20260901000458 99 156 5.0 11.0 0.00 0.00 0.00 31 1013.8
20260831235956 99 180 6.0 8.0 0.00 0.00 0.00 31 1013.8
20260831235452 99 210 6.0 7.0 0.00 0.00 0.00 31 1013.9
20260831234947 99 160 2.0 7.0 0.00 0.00 0.00 31 1013.8
20260831234441 100 196 6.0 10.0 0.00 0.00 0.00 30 1014.0